Track ONEWEB-0224 now! 10-day predictions ONEWEB-0224 is classified as:
1 48794U 21045AD 22141.58335648 .00036085 00000-0 95460-1 0 9993 2 48794 87.9103 195.1013 0002022 111.6040 347.8791 13.15535184 1300